Location: Canazei
(46.4667°N, 11.7667°E)
Time: 06:28:49
(UTC+00:00)

CZ-4B R/B - Pass Details

Date: 21 April 2021
Orbit: 702 x 803 km, 98.9° (Epoch: 15 May)

Event Time Altitude Azimuth Distance (km) Brightness Sun altitude
Rises 02:10:20 0° 16° (NNE) 3,103 7.7 -19.3°
Reaches altitude 10° 02:12:36 10° 19° (NNE) 2,183 6.8 -19.0°
Maximum altitude 02:17:21 69° 103° (ESE) 762 3.5 -18.4°
Enters shadow 02:20:27 22° 183° (S) 1,542 4.7 -18.0°
